QPF
0.08 0.05 0.05 0.03 0.03 0.03 0.02 0.01 0.01 0.01 0.00 0.00 0.01 0.01 0.03 0.04 0.03 0.02 0.02 0.02 0.03 0.03 0.03 0.04 0.02 0.01 0.01 0.01 0.01 0.03 0.08 0.10 0.14 0.16 0.15 0.11 0.12 0.17 0.15 0.12 0.11 0.11 0.11 0.10
0.06 0.04 0.03 0.03 0.02 0.02 0.02 0.02 0.02 0.01 0.01 0.00 0.01 0.01 0.03 0.04 0.03 0.02 0.02 0.02 0.02 0.02 0.03 0.04 0.03 0.02 0.01 0.01 0.02 0.04 0.09 0.10 0.13 0.18 0.18 0.11 0.09 0.12 0.13 0.10 0.10 0.11 0.11 0.09
0.04 0.03 0.03 0.02 0.02 0.02 0.01 0.02 0.02 0.01 0.01 0.01 0.01 0.01 0.03 0.04 0.03 0.02 0.03 0.03 0.03 0.02 0.03 0.03 0.03 0.02 0.02 0.02 0.02 0.05 0.09 0.10 0.12 0.16 0.17 0.13 0.12 0.11 0.12 0.10 0.09 0.09 0.10 0.10
0.02 0.02 0.02 0.02 0.02 0.02 0.02 0.01 0.01 0.01 0.02 0.02 0.01 0.03 0.03 0.03 0.02 0.03 0.04 0.05 0.06 0.04 0.04 0.05 0.04 0.04 0.04 0.03 0.04 0.06 0.10 0.11 0.12 0.15 0.15 0.14 0.12 0.11 0.10 0.08 0.07 0.06 0.06 0.09
0.02 0.02 0.02 0.02 0.02 0.02 0.03 0.01 0.01 0.02 0.02 0.03 0.02 0.03 0.03 0.02 0.03 0.03 0.04 0.05 0.05 0.05 0.06 0.05 0.05 0.06 0.05 0.05 0.06 0.07 0.10 0.12 0.14 0.14 0.13 0.13 0.12 0.12 0.10 0.07 0.06 0.05 0.06 0.07
0.02 0.02 0.02 0.02 0.01 0.02 0.02 0.02 0.03 0.03 0.04 0.04 0.02 0.03 0.03 0.02 0.02 0.02 0.03 0.05 0.05 0.04 0.05 0.04 0.05 0.07 0.06 0.07 0.08 0.08 0.10 0.12 0.13 0.13 0.13 0.12 0.12 0.12 0.10 0.07 0.07 0.07 0.07 0.08
0.02 0.01 0.01 0.01 0.02 0.02 0.03 0.05 0.06 0.06 0.05 0.03 0.01 0.02 0.03 0.02 0.02 0.03 0.03 0.04 0.04 0.04 0.05 0.05 0.05 0.06 0.08 0.10 0.09 0.07 0.08 0.11 0.12 0.12 0.12 0.10 0.10 0.10 0.10 0.10 0.08 0.09 0.09 0.09
0.02 0.02 0.01 0.01 0.02 0.03 0.03 0.03 0.05 0.05 0.05 0.03 0.02 0.02 0.02 0.03 0.04 0.03 0.03 0.04 0.04 0.06 0.07 0.07 0.08 0.09 0.09 0.10 0.09 0.08 0.08 0.10 0.10 0.11 0.11 0.11 0.10 0.10 0.10 0.10 0.10 0.10 0.10 0.10
0.02 0.01 0.01 0.00 0.01 0.02 0.02 0.02 0.01 0.02 0.02 0.02 0.02 0.01 0.01 0.01 0.02 0.03 0.04 0.04 0.05 0.06 0.07 0.06 0.06 0.06 0.06 0.07 0.08 0.09 0.09 0.08 0.09 0.10 0.11 0.14 0.11 0.09 0.09 0.11 0.11 0.11 0.10 0.08
0.01 0.02 0.01 0.00 0.00 0.01 0.01 0.01 0.02 0.03 0.03 0.03 0.01 0.01 0.01 0.01 0.01 0.03 0.04 0.04 0.04 0.05 0.05 0.05 0.06 0.06 0.06 0.06 0.06 0.07 0.08 0.09 0.10 0.09 0.09 0.12 0.11 0.09 0.08 0.09 0.09 0.07 0.07 0.06
0.01 0.01 0.01 0.01 0.01 0.01 0.01 0.01 0.02 0.02 0.02 0.03 0.03 0.02 0.01 0.01 0.01 0.02 0.04 0.04 0.04 0.04 0.05 0.04 0.04 0.04 0.04 0.05 0.05 0.05 0.05 0.06 0.06 0.06 0.05 0.07 0.06 0.06 0.06 0.06 0.08 0.05 0.04 0.04
0.00 0.01 0.01 0.01 0.00 0.00 0.01 0.01 0.02 0.03 0.02 0.01 0.02 0.02 0.01 0.01 0.01 0.02 0.03 0.04 0.05 0.05 0.06 0.04 0.03 0.02 0.03 0.03 0.03 0.03 0.03 0.03 0.03 0.03 0.03 0.03 0.04 0.03 0.03 0.04 0.05 0.05 0.04 0.03
0.01 0.01 0.01 0.01 0.01 0.00 0.01 0.01 0.02 0.02 0.02 0.02 0.02 0.01 0.01 0.01 0.01 0.01 0.01 0.03 0.04 0.04 0.04 0.04 0.03 0.02 0.02 0.02 0.02 0.02 0.03 0.03 0.03 0.03 0.02 0.02 0.04 0.04 0.03 0.03 0.03 0.03 0.03 0.03
0.01 0.01 0.01 0.01 0.00 0.01 0.00 0.00 0.01 0.02 0.03 0.01 0.01 0.01 0.00 0.01 0.01 0.01 0.01 0.02 0.03 0.03 0.02 0.03 0.04 0.03 0.02 0.02 0.03 0.02 0.03 0.03 0.03 0.03 0.03 0.03 0.03 0.04 0.03 0.02 0.02 0.02 0.02 0.01
0.00 0.00 0.00 0.00 0.00 0.00 0.00 0.00 0.00 0.01 0.01 0.01 0.01 0.00 0.00 0.01 0.01 0.02 0.02 0.02 0.02 0.02 0.02 0.02 0.02 0.03 0.03 0.03 0.03 0.03 0.02 0.03 0.04 0.03 0.03 0.03 0.04 0.03 0.03 0.02 0.02 0.01 0.01 0.01
0.00 0.01 0.00 0.00 0.00 0.00 0.00 0.00 0.00 0.01 0.01 0.01 0.00 0.00 0.00 0.00 0.01 0.01 0.02 0.02 0.02 0.02 0.02 0.02 0.02 0.03 0.03 0.04 0.04 0.03 0.03 0.03 0.03 0.03 0.02 0.02 0.03 0.03 0.03 0.02 0.02 0.01 0.01 0.01
0.01 0.01 0.01 0.00 0.00 0.00 0.00 0.00 0.00 0.01 0.00 0.01 0.01 0.01 0.01 0.00 0.00 0.01 0.01 0.01 0.01 0.01 0.01 0.02 0.02 0.02 0.03 0.03 0.03 0.03 0.02 0.02 0.02 0.02 0.02 0.01 0.02 0.03 0.03 0.03 0.02 0.02 0.02 0.02
0.01 0.01 0.01 0.01 0.00 0.00 0.00 0.00 0.00 0.00 0.00 0.00 0.01 0.01 0.01 0.01 0.00 0.00 0.01 0.01 0.01 0.01 0.01 0.01 0.01 0.01 0.01 0.02 0.02 0.02 0.02 0.01 0.01 0.01 0.01 0.01 0.01 0.01 0.02 0.02 0.02 0.02 0.02 0.02
0.00 0.01 0.02 0.01 0.01 0.00 0.00 0.00 0.00 0.00 0.00 0.00 0.01 0.00 0.00 0.00 0.00 0.00 0.00 0.00 0.00 0.01 0.01 0.01 0.00 0.00 0.01 0.01 0.01 0.01 0.01 0.01 0.01 0.01 0.01 0.00 0.00 0.01 0.01 0.01 0.01 0.02 0.02 0.02
0.00 0.01 0.02 0.02 0.01 0.00 0.00 0.00 0.00 0.00 0.00 0.00 0.00 0.00 0.00 0.01 0.01 0.00 0.00 0.00 0.00 0.00 0.00 0.00 0.00 0.00 0.00 0.00 0.00 0.01 0.01 0.01 0.01 0.00 0.01 0.01 0.01 0.00 0.00 0.01 0.01 0.01 0.02 0.02
0.00 0.01 0.02 0.01 0.01 0.00 0.00 0.00 0.00 0.00 0.00 0.00 0.00 0.00 0.01 0.01 0.01 0.01 0.00 0.00 0.00 0.00 0.00 0.00 0.00 0.00 0.00 0.00 0.00 0.01 0.01 0.02 0.01 0.00 0.01 0.01 0.01 0.01 0.01 0.01 0.01 0.01 0.01 0.02
0.00 0.00 0.01 0.01 0.01 0.01 0.00 0.00 0.00 0.00 0.00 0.00 0.00 0.00 0.01 0.01 0.01 0.01 0.00 0.00 0.00 0.00 0.00 0.00 0.01 0.01 0.01 0.01 0.01 0.01 0.01 0.01 0.01 0.00 0.00 0.01 0.01 0.01 0.01 0.01 0.01 0.01 0.01 0.01
0.00 0.00 0.00 0.00 0.00 0.00 0.00 0.00 0.00 0.00 0.00 0.00 0.00 0.00 0.01 0.01 0.01 0.01 0.01 0.00 0.00 0.01 0.00 0.00 0.01 0.01 0.02 0.02 0.01 0.01 0.01 0.01 0.00 0.00 0.00 0.01 0.01 0.01 0.00 0.01 0.01 0.01 0.01 0.01
0.00 0.00 0.00 0.00 0.00 0.00 0.00 0.00 0.00 0.00 0.00 0.00 0.00 0.00 0.00 0.01 0.01 0.01 0.02 0.01 0.00 0.00 0.00 0.00 0.00 0.01 0.02 0.02 0.02 0.01 0.01 0.01 0.01 0.00 0.00 0.00 0.00 0.00 0.00 0.00 0.00 0.01 0.01 0.02
0.00 0.00 0.00 0.00 0.00 0.00 0.00 0.00 0.00 0.00 0.00 0.00 0.00 0.00 0.00 0.00 0.00 0.01 0.01 0.00 0.00 0.00 0.00 0.00 0.00 0.00 0.00 0.00 0.00 0.01 0.01 0.01 0.01 0.01 0.00 0.00 0.00 0.00 0.00 0.00 0.01 0.01 0.01 0.02
0.00 0.00 0.00 0.00 0.00 0.00 0.00 0.00 0.00 0.00 0.00 0.00 0.00 0.00 0.00 0.00 0.00 0.00 0.01 0.00 0.00 0.00 0.00 0.00 0.00 0.00 0.00 0.00 0.00 0.00 0.00 0.00 0.00 0.00 0.00 0.00 0.00 0.00 0.00 0.00 0.01 0.01 0.01 0.01
MSLP
1016.07 1015.95 1015.89 1015.90 1015.99 1016.16 1016.41 1016.71 1017.01 1017.30 1017.53 1017.68 1017.74 1017.72 1017.63 1017.51 1017.39 1017.29 1017.24 1017.24 1017.30 1017.40 1017.49 1017.56 1017.57 1017.50 1017.34 1017.08 1016.74 1016.34 1015.90 1015.46 1015.02 1014.63 1014.28 1013.98 1013.72 1013.51 1013.34 1013.19 1013.05 1012.94 1012.84 1012.75
1016.43 1016.32 1016.24 1016.24 1016.31 1016.46 1016.68 1016.95 1017.23 1017.48 1017.67 1017.77 1017.77 1017.70 1017.56 1017.39 1017.24 1017.13 1017.08 1017.10 1017.18 1017.30 1017.42 1017.52 1017.56 1017.52 1017.41 1017.21 1016.95 1016.65 1016.31 1015.96 1015.61 1015.27 1014.94 1014.62 1014.31 1014.01 1013.73 1013.46 1013.22 1013.01 1012.84 1012.71
1016.79 1016.70 1016.63 1016.60 1016.65 1016.76 1016.95 1017.17 1017.40 1017.59 1017.71 1017.74 1017.68 1017.53 1017.32 1017.11 1016.92 1016.79 1016.75 1016.79 1016.90 1017.05 1017.21 1017.33 1017.41 1017.42 1017.35 1017.22 1017.04 1016.83 1016.59 1016.34 1016.09 1015.81 1015.52 1015.20 1014.86 1014.50 1014.13 1013.77 1013.43 1013.15 1012.92 1012.75
1017.15 1017.07 1016.99 1016.95 1016.97 1017.04 1017.18 1017.34 1017.50 1017.61 1017.65 1017.59 1017.43 1017.19 1016.91 1016.64 1016.42 1016.28 1016.24 1016.31 1016.46 1016.66 1016.87 1017.05 1017.17 1017.23 1017.21 1017.14 1017.03 1016.89 1016.74 1016.58 1016.41 1016.20 1015.96 1015.66 1015.32 1014.93 1014.51 1014.09 1013.70 1013.36 1013.08 1012.87
1017.48 1017.41 1017.33 1017.27 1017.26 1017.29 1017.37 1017.47 1017.55 1017.58 1017.51 1017.35 1017.08 1016.74 1016.37 1016.03 1015.77 1015.62 1015.60 1015.70 1015.91 1016.18 1016.46 1016.71 1016.90 1017.01 1017.05 1017.03 1016.97 1016.88 1016.79 1016.69 1016.58 1016.43 1016.24 1015.98 1015.66 1015.27 1014.85 1014.42 1014.00 1013.63 1013.33 1013.09
1017.78 1017.71 1017.63 1017.55 1017.52 1017.52 1017.55 1017.59 1017.60 1017.54 1017.38 1017.10 1016.72 1016.27 1015.80 1015.38 1015.06 1014.89 1014.88 1015.03 1015.31 1015.66 1016.03 1016.37 1016.64 1016.82 1016.91 1016.93 1016.90 1016.84 1016.78 1016.71 1016.62 1016.52 1016.37 1016.15 1015.87 1015.53 1015.13 1014.72 1014.32 1013.95 1013.64 1013.40
1018.05 1017.97 1017.88 1017.81 1017.76 1017.74 1017.76 1017.76 1017.71 1017.58 1017.32 1016.94 1016.45 1015.88 1015.30 1014.79 1014.41 1014.20 1014.20 1014.38 1014.72 1015.16 1015.63 1016.07 1016.42 1016.68 1016.82 1016.87 1016.86 1016.80 1016.73 1016.66 1016.58 1016.49 1016.37 1016.20 1015.98 1015.69 1015.35 1014.99 1014.63 1014.30 1014.00 1013.76
1018.27 1018.19 1018.10 1018.03 1017.99 1017.99 1018.00 1017.99 1017.92 1017.74 1017.42 1016.95 1016.35 1015.67 1014.99 1014.37 1013.91 1013.65 1013.62 1013.82 1014.20 1014.71 1015.27 1015.80 1016.24 1016.57 1016.77 1016.85 1016.83 1016.76 1016.67 1016.57 1016.48 1016.39 1016.29 1016.16 1015.99 1015.77 1015.51 1015.22 1014.92 1014.63 1014.37 1014.13
1018.43 1018.35 1018.28 1018.23 1018.22 1018.24 1018.28 1018.29 1018.22 1018.02 1017.66 1017.13 1016.45 1015.68 1014.89 1014.17 1013.62 1013.29 1013.21 1013.39 1013.79 1014.33 1014.95 1015.56 1016.08 1016.47 1016.72 1016.82 1016.81 1016.73 1016.61 1016.48 1016.36 1016.26 1016.16 1016.06 1015.94 1015.79 1015.60 1015.39 1015.16 1014.92 1014.68 1014.46
1018.52 1018.45 1018.39 1018.38 1018.41 1018.48 1018.56 1018.61 1018.56 1018.37 1017.99 1017.43 1016.69 1015.85 1014.98 1014.17 1013.52 1013.11 1012.96 1013.09 1013.46 1014.01 1014.66 1015.31 1015.88 1016.33 1016.62 1016.76 1016.76 1016.67 1016.53 1016.37 1016.23 1016.11 1016.01 1015.93 1015.85 1015.76 1015.64 1015.49 1015.32 1015.12 1014.91 1014.70
1018.55 1018.48 1018.45 1018.46 1018.53 1018.64 1018.76 1018.84 1018.82 1018.64 1018.28 1017.71 1016.96 1016.08 1015.15 1014.28 1013.55 1013.05 1012.83 1012.89 1013.21 1013.72 1014.36 1015.02 1015.62 1016.11 1016.44 1016.61 1016.64 1016.57 1016.42 1016.26 1016.10 1015.97 1015.87 1015.80 1015.75 1015.69 1015.62 1015.51 1015.38 1015.22 1015.02 1014.81
1018.55 1018.48 1018.46 1018.49 1018.57 1018.69 1018.82 1018.90 1018.89 1018.72 1018.37 1017.81 1017.07 1016.19 1015.25 1014.36 1013.59 1013.03 1012.74 1012.72 1012.97 1013.43 1014.02 1014.66 1015.27 1015.78 1016.15 1016.37 1016.44 1016.40 1016.28 1016.13 1015.98 1015.85 1015.76 1015.69 1015.65 1015.61 1015.55 1015.47 1015.36 1015.20 1015.01 1014.78
1018.56 1018.50 1018.47 1018.47 1018.52 1018.60 1018.68 1018.73 1018.68 1018.49 1018.14 1017.60 1016.89 1016.05 1015.16 1014.28 1013.52 1012.95 1012.62 1012.54 1012.72 1013.11 1013.64 1014.25 1014.84 1015.36 1015.77 1016.03 1016.17 1016.19 1016.12 1016.01 1015.88 1015.77 1015.68 1015.61 1015.56 1015.52 1015.46 1015.37 1015.25 1015.09 1014.88 1014.63
1018.67 1018.59 1018.51 1018.45 1018.41 1018.39 1018.36 1018.29 1018.16 1017.91 1017.53 1017.01 1016.35 1015.59 1014.77 1013.98 1013.29 1012.75 1012.42 1012.32 1012.45 1012.78 1013.25 1013.80 1014.37 1014.89 1015.32 1015.64 1015.84 1015.94 1015.94 1015.89 1015.81 1015.72 1015.64 1015.56 1015.50 1015.43 1015.34 1015.23 1015.08 1014.89 1014.66 1014.38
1018.89 1018.77 1018.63 1018.46 1018.28 1018.09 1017.88 1017.64 1017.36 1017.01 1016.58 1016.06 1015.45 1014.79 1014.10 1013.45 1012.87 1012.43 1012.15 1012.07 1012.17 1012.45 1012.87 1013.37 1013.90 1014.41 1014.86 1015.23 1015.50 1015.67 1015.76 1015.78 1015.76 1015.70 1015.63 1015.54 1015.44 1015.34 1015.21 1015.05 1014.87 1014.64 1014.38 1014.07
1019.23 1019.06 1018.83 1018.52 1018.16 1017.75 1017.31 1016.86 1016.38 1015.89 1015.38 1014.85 1014.31 1013.76 1013.23 1012.74 1012.33 1012.02 1011.84 1011.81 1011.92 1012.18 1012.54 1012.99 1013.47 1013.96 1014.42 1014.83 1015.16 1015.41 1015.58 1015.67 1015.70 1015.68 1015.62 1015.52 1015.39 1015.24 1015.06 1014.85 1014.62 1014.36 1014.06 1013.73
1019.61 1019.39 1019.05 1018.60 1018.04 1017.40 1016.73 1016.03 1015.35 1014.71 1014.11 1013.56 1013.08 1012.65 1012.28 1011.98 1011.76 1011.61 1011.56 1011.60 1011.74 1011.97 1012.29 1012.68 1013.12 1013.57 1014.03 1014.45 1014.83 1015.14 1015.38 1015.55 1015.63 1015.64 1015.58 1015.47 1015.31 1015.11 1014.88 1014.62 1014.35 1014.05 1013.73 1013.39
1019.92 1019.65 1019.22 1018.63 1017.89 1017.05 1016.16 1015.25 1014.38 1013.60 1012.92 1012.37 1011.94 1011.63 1011.42 1011.31 1011.26 1011.28 1011.35 1011.47 1011.64 1011.86 1012.13 1012.46 1012.83 1013.23 1013.66 1014.08 1014.49 1014.85 1015.14 1015.36 1015.49 1015.53 1015.49 1015.36 1015.17 1014.93 1014.66 1014.36 1014.05 1013.73 1013.40 1013.06
1020.01 1019.70 1019.20 1018.50 1017.64 1016.66 1015.60 1014.55 1013.55 1012.67 1011.94 1011.40 1011.03 1010.83 1010.77 1010.81 1010.93 1011.08 1011.25 1011.43 1011.61 1011.81 1012.03 1012.28 1012.57 1012.91 1013.29 1013.70 1014.10 1014.49 1014.82 1015.08 1015.26 1015.32 1015.29 1015.16 1014.96 1014.69 1014.39 1014.06 1013.73 1013.40 1013.07 1012.73
1019.75 1019.41 1018.88 1018.13 1017.21 1016.16 1015.03 1013.91 1012.86 1011.95 1011.23 1010.72 1010.42 1010.32 1010.37 1010.54 1010.77 1011.02 1011.26 1011.46 1011.63 1011.78 1011.93 1012.09 1012.30 1012.56 1012.88 1013.25 1013.65 1014.04 1014.40 1014.70 1014.91 1015.00 1014.99 1014.87 1014.66 1014.39 1014.07 1013.73 1013.40 1013.06 1012.74 1012.40
1019.10 1018.73 1018.18 1017.44 1016.53 1015.49 1014.39 1013.29 1012.28 1011.41 1010.75 1010.31 1010.09 1010.07 1010.21 1010.46 1010.76 1011.05 1011.30 1011.50 1011.63 1011.71 1011.77 1011.85 1011.97 1012.15 1012.40 1012.73 1013.10 1013.50 1013.88 1014.21 1014.45 1014.58 1014.59 1014.50 1014.30 1014.04 1013.72 1013.39 1013.05 1012.72 1012.40 1012.07
1018.06 1017.67 1017.13 1016.42 1015.58 1014.63 1013.63 1012.64 1011.75 1011.00 1010.44 1010.09 1009.96 1010.01 1010.21 1010.49 1010.80 1011.09 1011.32 1011.47 1011.53 1011.54 1011.52 1011.51 1011.54 1011.65 1011.85 1012.13 1012.49 1012.88 1013.28 1013.64 1013.91 1014.08 1014.14 1014.08 1013.91 1013.66 1013.36 1013.04 1012.71 1012.38 1012.05 1011.72
1016.74 1016.31 1015.78 1015.14 1014.39 1013.58 1012.74 1011.93 1011.21 1010.62 1010.20 1009.97 1009.92 1010.03 1010.25 1010.53 1010.81 1011.06 1011.23 1011.31 1011.30 1011.23 1011.13 1011.04 1011.01 1011.07 1011.23 1011.49 1011.84 1012.24 1012.65 1013.04 1013.35 1013.57 1013.67 1013.65 1013.52 1013.31 1013.03 1012.72 1012.39 1012.06 1011.72 1011.37
1015.28 1014.80 1014.27 1013.69 1013.07 1012.42 1011.77 1011.17 1010.64 1010.23 1009.97 1009.85 1009.87 1010.00 1010.22 1010.47 1010.70 1010.87 1010.97 1010.97 1010.89 1010.76 1010.60 1010.48 1010.41 1010.44 1010.59 1010.84 1011.20 1011.61 1012.05 1012.47 1012.82 1013.08 1013.23 1013.26 1013.17 1013.00 1012.74 1012.45 1012.12 1011.77 1011.41 1011.02
1013.81 1013.28 1012.75 1012.23 1011.72 1011.23 1010.77 1010.37 1010.04 1009.81 1009.68 1009.65 1009.72 1009.87 1010.06 1010.24 1010.40 1010.49 1010.51 1010.44 1010.31 1010.14 1009.97 1009.83 1009.77 1009.81 1009.97 1010.24 1010.62 1011.05 1011.52 1011.97 1012.36 1012.66 1012.85 1012.92 1012.89 1012.74 1012.52 1012.23 1011.90 1011.53 1011.13 1010.70
1012.44 1011.85 1011.31 1010.84 1010.44 1010.09 1009.81 1009.58 1009.43 1009.34 1009.32 1009.36 1009.46 1009.59 1009.72 1009.83 1009.91 1009.92 1009.86 1009.75 1009.59 1009.41 1009.25 1009.15 1009.12 1009.21 1009.41 1009.72 1010.13 1010.60 1011.09 1011.56 1011.98 1012.32 1012.54 1012.66 1012.65 1012.54 1012.34 1012.06 1011.73 1011.34 1010.90 1010.41
Thickness
5528 5527 5528 5535 5540 5546 5549 5551 5553 5560 5567 5565 5566 5570 5576 5580 5582 5583 5585 5588 5590 5593 5596 5599 5601 5604 5607 5610 5614 5617 5620 5624 5628 5632 5635 5638 5641 5644 5646 5648 5650 5652 5653 5654
5525 5525 5534 5540 5543 5544 5546 5546 5550 5557 5563 5562 5563 5567 5574 5579 5579 5580 5581 5582 5584 5586 5588 5591 5593 5595 5596 5600 5603 5606 5610 5613 5618 5622 5625 5629 5631 5633 5635 5638 5640 5642 5643 5645
5524 5529 5536 5538 5539 5540 5542 5544 5547 5549 5555 5560 5558 5561 5572 5577 5578 5578 5578 5578 5579 5580 5580 5582 5584 5585 5587 5590 5593 5597 5601 5605 5609 5612 5616 5619 5619 5622 5624 5626 5628 5631 5634 5635
5529 5534 5536 5536 5537 5537 5538 5547 5548 5547 5544 5545 5553 5547 5568 5572 5572 5573 5571 5570 5570 5572 5573 5574 5576 5578 5580 5582 5585 5589 5593 5597 5600 5603 5606 5608 5610 5612 5613 5615 5617 5620 5623 5624
5528 5532 5533 5533 5536 5537 5538 5545 5545 5544 5542 5541 5549 5544 5560 5567 5565 5567 5567 5567 5566 5566 5566 5567 5569 5571 5574 5575 5578 5582 5586 5589 5592 5595 5597 5598 5601 5603 5604 5606 5608 5610 5612 5614
5532 5536 5534 5534 5537 5539 5540 5541 5544 5543 5538 5535 5551 5547 5556 5560 5563 5565 5565 5563 5561 5561 5561 5561 5562 5564 5566 5569 5571 5574 5577 5581 5584 5586 5588 5590 5592 5594 5596 5597 5598 5600 5602 5604
5533 5536 5537 5536 5534 5538 5537 5531 5531 5533 5532 5541 5559 5552 5557 5565 5565 5563 5561 5558 5556 5555 5554 5555 5556 5557 5559 5561 5563 5565 5569 5572 5575 5577 5580 5582 5585 5586 5588 5589 5589 5591 5593 5595
5528 5529 5537 5537 5534 5531 5534 5532 5526 5530 5539 5547 5554 5551 5561 5565 5562 5560 5558 5554 5551 5550 5548 5549 5549 5550 5552 5554 5556 5558 5561 5563 5565 5568 5571 5574 5577 5578 5579 5580 5582 5583 5585 5587
5527 5530 5540 5540 5538 5534 5533 5533 5536 5528 5533 5538 5552 5561 5562 5562 5558 5556 5553 5550 5547 5546 5545 5544 5544 5545 5546 5548 5550 5553 5554 5556 5557 5560 5563 5565 5568 5570 5571 5573 5575 5575 5577 5578
5531 5526 5539 5541 5538 5535 5534 5534 5529 5527 5530 5540 5557 5559 5555 5554 5553 5552 5550 5548 5546 5544 5542 5542 5541 5540 5541 5543 5544 5546 5548 5549 5550 5553 5555 5558 5560 5563 5565 5566 5568 5568 5570 5571
5534 5526 5534 5539 5537 5537 5534 5533 5532 5530 5533 5530 5540 5554 5567 5560 5556 5551 5549 5546 5543 5541 5539 5537 5537 5537 5537 5538 5539 5541 5542 5543 5544 5547 5549 5551 5553 5555 5557 5559 5561 5561 5562 5563
5535 5529 5527 5541 5546 5544 5540 5538 5534 5526 5531 5535 5531 5547 5567 5562 5557 5552 5548 5546 5542 5539 5536 5535 5534 5534 5533 5534 5535 5536 5538 5539 5540 5541 5543 5545 5548 5549 5551 5553 5554 5555 5555 5556
5533 5529 5525 5538 5538 5537 5537 5539 5538 5533 5526 5526 5530 5547 5561 5557 5554 5550 5547 5544 5541 5539 5536 5534 5532 5532 5531 5531 5532 5533 5535 5535 5537 5538 5539 5540 5542 5544 5546 5546 5547 5548 5549 5549
5533 5527 5526 5529 5537 5539 5537 5539 5539 5529 5516 5527 5539 5550 5553 5552 5549 5548 5546 5544 5540 5538 5536 5534 5531 5530 5530 5530 5530 5531 5531 5532 5533 5534 5534 5535 5537 5539 5539 5540 5541 5542 5543 5543
5531 5527 5533 5538 5545 5545 5543 5543 5541 5532 5530 5527 5542 5549 5554 5553 5550 5548 5547 5544 5542 5539 5537 5535 5532 5530 5529 5529 5528 5529 5529 5529 5530 5531 5531 5531 5532 5534 5534 5534 5535 5536 5537 5537
5530 5528 5532 5535 5548 5548 5545 5548 5547 5544 5543 5542 5543 5548 5557 5557 5554 5550 5547 5545 5543 5540 5539 5536 5534 5531 5529 5527 5527 5527 5527 5527 5528 5528 5528 5528 5529 5529 5529 5529 5530 5531 5530 5530
5527 5526 5524 5527 5545 5544 5543 5559 5553 5551 5552 5549 5545 5552 5558 5555 5554 5551 5549 5546 5544 5542 5540 5537 5534 5530 5528 5526 5526 5525 5525 5525 5525 5525 5525 5525 5525 5525 5525 5525 5525 5525 5524 5522
5522 5520 5517 5521 5530 5529 5562 5569 5566 5559 5558 5557 5557 5558 5558 5557 5556 5554 5551 5547 5544 5543 5540 5537 5533 5531 5528 5526 5524 5523 5523 5522 5522 5522 5522 5521 5521 5521 5521 5520 5519 5518 5517 5515
5522 5518 5514 5515 5521 5539 5563 5564 5561 5556 5555 5561 5559 5559 5558 5557 5553 5550 5552 5549 5545 5542 5539 5535 5532 5530 5527 5524 5523 5522 5521 5520 5520 5519 5518 5518 5517 5516 5516 5515 5513 5512 5511 5509
5521 5515 5507 5512 5515 5527 5564 5563 5562 5555 5548 5563 5561 5558 5555 5550 5540 5545 5551 5548 5544 5541 5537 5534 5531 5528 5525 5523 5521 5519 5518 5517 5517 5516 5515 5514 5513 5512 5511 5510 5508 5507 5505 5504
5508 5505 5502 5504 5511 5536 5561 5556 5552 5541 5552 5563 5560 5557 5552 5546 5544 5547 5548 5545 5541 5538 5534 5532 5529 5526 5524 5521 5519 5516 5515 5515 5515 5513 5512 5510 5509 5508 5506 5505 5504 5502 5500 5498
5515 5509 5509 5510 5510 5531 5554 5548 5545 5550 5559 5559 5556 5554 5551 5548 5547 5545 5543 5541 5537 5534 5531 5529 5525 5523 5521 5519 5516 5514 5512 5512 5511 5509 5508 5506 5505 5504 5502 5500 5498 5496 5494 5491
5527 5529 5528 5529 5539 5554 5552 5552 5554 5556 5554 5554 5550 5550 5547 5544 5541 5540 5538 5535 5532 5530 5527 5525 5522 5519 5517 5515 5514 5511 5510 5509 5507 5505 5503 5502 5500 5498 5496 5494 5491 5489 5487 5484
5530 5534 5527 5528 5542 5549 5549 5550 5551 5551 5548 5548 5547 5544 5542 5538 5537 5535 5533 5530 5528 5526 5523 5521 5518 5515 5512 5511 5510 5508 5507 5505 5503 5500 5498 5496 5494 5492 5490 5487 5485 5482 5480 5477
5524 5523 5517 5521 5535 5539 5545 5546 5546 5545 5544 5542 5541 5539 5536 5533 5532 5530 5528 5526 5524 5521 5518 5516 5513 5511 5509 5507 5506 5504 5502 5500 5497 5495 5492 5490 5488 5485 5483 5480 5478 5476 5473 5471
5520 5517 5513 5525 5536 5533 5538 5544 5543 5539 5537 5536 5533 5532 5531 5528 5526 5525 5523 5522 5520 5516 5514 5511 5508 5507 5505 5503 5501 5499 5497 5495 5492 5488 5486 5483 5481 5478 5475 5472 5470 5468 5466 5464